Date String (YYYY-MM-DD hh:mm:ss) UTC,Instrument flags,absolute air pressure of the measurement (hPa),sample flow rate (lpm),inlet stack bypass flow (lpm),air temperature of the measurement (°C),ambient temperature measured by the external sensor (°C),aerosol sample conditioner tube jacket temperature (°C),OPC LED temperature (°C),internal box temperature (°C),relative humidity of the measurement (%),span deviation,mass concentration of particles derived from Lorenz-Mie calculation of OPC scattering (μg/m³),mass concentration of particles derived from Lorenz-Mie calculation of OPC scattering (μg/m³),mass concentration of particles derived from Lorenz-Mie calculation of OPC scattering (μg/m³)
DateTimeUTC,F1_M11,P_M11,Q1_M11,Q2_M11,T1_M11,T2_M11,T3_M11,T4_M11,T5_M11,U1_M11,ZSPAN_M11,X0_M11,X2_M11,X1_M11
2023-11-24 14:00:00,SystemResetWarning,0834.7,4.98,000.00,019.2,019.2,000.0,027.3,020.7,12.4,0000.0,0006.44,0002.63,0002.06
2023-11-24 14:01:00,SystemResetWarning,0834.3,5.00,000.00,019.2,019.0,000.0,027.4,020.5,12.4,0000.0,0007.16,0002.62,0002.08
2023-11-24 14:02:00,SystemResetWarning,0834.3,5.00,000.00,019.2,018.9,000.0,027.4,020.4,12.5,0000.0,0007.24,0002.62,0002.08
2023-11-24 14:03:00,SystemResetWarning,0834.5,5.00,000.00,019.1,018.7,000.0,027.4,020.3,12.5,0000.0,0006.05,0002.64,0002.10
2023-11-24 14:04:00,SystemResetWarning,0834.4,5.00,000.00,019.1,018.6,000.0,027.4,020.3,12.5,0000.0,0005.82,0002.74,0002.12
2023-11-24 14:05:00,SystemResetWarning,0834.2,5.00,000.00,019.1,018.5,000.0,027.4,020.3,12.5,0000.0,0005.90,0002.78,0002.15
2023-11-24 14:06:00,SystemResetWarning,0834.4,5.00,000.00,019.1,018.4,000.0,027.4,020.2,12.5,0000.0,0005.94,0002.79,0002.18
2023-11-24 14:07:00,SystemResetWarning,0834.5,5.00,000.00,019.0,018.3,000.0,027.4,020.2,12.5,0000.0,0006.82,0002.83,0002.22
2023-11-24 14:08:00,SystemResetWarning,0834.3,5.00,000.00,019.0,018.3,000.0,027.4,020.1,12.5,0000.0,0006.56,0002.92,0002.25
2023-11-24 14:09:00,SystemResetWarning,0834.3,5.00,000.00,019.0,018.2,000.0,027.3,020.0,12.5,0000.0,0006.71,0002.97,0002.28
2023-11-24 14:10:00,SystemResetWarning,0834.3,5.00,000.00,019.0,018.2,000.0,027.3,020.0,12.5,0000.0,0006.78,0003.02,0002.33
2023-11-24 14:11:00,SystemResetWarning,0834.3,5.00,000.00,018.9,018.1,000.0,027.3,020.0,12.5,0000.0,0006.86,0003.05,0002.33
2023-11-24 14:12:00,SystemResetWarning,0834.4,5.00,000.00,018.9,018.0,000.0,027.3,020.0,12.5,0000.0,0006.24,0003.07,0002.31
2023-11-24 14:13:00,SystemResetWarning,0834.3,5.00,000.00,018.9,018.0,000.0,027.3,020.1,12.6,0000.0,0006.35,0003.11,0002.30
2023-11-24 14:14:00,SystemResetWarning,0834.3,5.00,000.00,019.0,018.4,000.0,027.3,020.6,12.5,0000.0,0006.42,0003.11,0002.29
2023-11-24 14:15:00,SystemResetWarning,0834.4,5.00,000.00,019.1,019.1,000.0,027.3,021.0,12.4,0000.0,0006.06,0003.01,0002.27
2023-11-24 14:16:00,SystemResetWarning,0834.4,4.99,000.00,019.2,019.2,000.0,027.3,020.8,12.4,0000.0,0005.90,0002.93,0002.24
2023-11-24 14:17:00,SystemResetWarning,0834.3,4.99,000.00,019.2,019.1,000.0,027.3,020.5,12.4,0000.0,0005.76,0002.86,0002.21
2023-11-24 14:18:00,SystemResetWarning,0834.3,5.00,000.00,019.1,018.9,000.0,027.4,020.3,12.4,0000.0,0004.98,0002.83,0002.17
2023-11-24 14:19:00,SystemResetWarning,0834.3,5.00,000.00,019.1,018.8,000.0,027.4,020.2,12.4,0000.0,0004.79,0002.76,0002.14
2023-11-24 14:20:00,SystemResetWarning,0834.3,5.01,000.00,019.1,018.6,000.0,027.4,020.2,12.4,0000.0,0004.59,0002.70,0002.13
2023-11-24 14:21:00,SystemResetWarning,0834.5,5.00,000.00,019.0,018.5,000.0,027.4,020.1,12.5,0000.0,0004.58,0002.66,0002.09
2023-11-24 14:22:00,SystemResetWarning,0834.4,4.99,000.00,019.0,018.5,000.0,027.3,020.1,12.5,0000.0,0004.66,0002.68,0002.06
2023-11-24 14:23:00,SystemResetWarning,0834.4,5.00,000.00,019.0,018.4,000.0,027.3,020.1,12.5,0000.0,0004.56,0002.62,0002.05
2023-11-24 14:24:00,SystemResetWarning,0834.3,5.00,000.00,019.0,018.3,000.0,027.3,020.1,12.5,0000.0,0003.97,0002.55,0002.03
2023-11-24 14:25:00,SystemResetWarning,0834.4,5.01,000.00,019.0,018.2,000.0,027.3,020.1,12.5,0000.0,0003.70,0002.52,0002.01
2023-11-24 14:26:00,SystemResetWarning,0834.2,5.00,000.00,018.9,018.2,000.0,027.3,020.0,12.6,0000.0,0003.65,0002.49,0001.99
2023-11-24 14:27:00,SystemResetWarning,0834.2,5.00,000.00,018.9,018.1,000.0,027.3,020.0,12.6,0000.0,0003.77,0002.53,0001.99
2023-11-24 14:28:00,SystemResetWarning,0834.2,5.01,000.00,018.9,018.1,000.0,027.3,020.0,12.6,0000.0,0004.30,0002.57,0001.99
2023-11-24 14:29:00,SystemResetWarning,0834.2,5.01,000.00,018.9,018.0,000.0,027.3,020.0,12.6,0000.0,0005.51,0002.61,0001.98
2023-11-24 14:30:00,SystemResetWarning,0834.4,5.00,000.00,018.9,018.0,000.0,027.3,020.0,12.7,0000.0,0005.73,0002.64,0001.99
2023-11-24 14:31:00,SystemResetWarning,0834.2,5.00,000.00,018.9,018.1,000.0,027.3,020.3,12.7,0000.0,0005.87,0002.67,0001.98
2023-11-24 14:32:00,SystemResetWarning,0834.5,5.00,000.00,019.0,018.7,000.0,027.3,020.8,12.6,0000.0,0005.86,0002.64,0001.97
2023-11-24 14:33:00,SystemResetWarning,0834.3,4.99,000.00,019.1,019.2,000.0,027.3,021.0,12.5,0000.0,0007.05,0002.60,0001.96
2023-11-24 14:34:00,SystemResetWarning,0834.5,4.99,000.00,019.2,019.2,000.0,027.3,020.7,12.5,0000.0,0007.20,0002.63,0001.97
2023-11-24 14:35:00,SystemResetWarning,0834.5,4.99,000.00,019.1,019.0,000.0,027.3,020.4,12.5,0000.0,0007.31,0002.68,0001.98
2023-11-24 14:36:00,SystemResetWarning,0834.5,5.01,000.00,019.1,018.8,000.0,027.3,020.2,12.5,0000.0,0007.40,0002.72,0001.99
2023-11-24 14:37:00,SystemResetWarning,0834.5,5.01,000.00,019.1,018.7,000.0,027.3,020.2,12.5,0000.0,0007.47,0002.78,0002.00
2023-11-24 14:38:00,SystemResetWarning,0834.6,5.01,000.00,019.0,018.6,000.0,027.3,020.2,12.6,0000.0,0007.48,0002.79,0002.00
2023-11-24 14:39:00,SystemResetWarning,0834.4,5.01,000.00,019.0,018.5,000.0,027.3,020.2,12.6,0000.0,0007.27,0002.81,0002.01
2023-11-24 14:40:00,SystemResetWarning,0834.5,5.00,000.00,019.0,018.4,000.0,027.3,020.1,12.6,0000.0,0005.91,0002.74,0002.01
2023-11-24 14:41:00,SystemResetWarning,0834.4,5.00,000.00,019.0,018.3,000.0,027.3,020.1,12.6,0000.0,0005.76,0002.72,0002.00
2023-11-24 14:42:00,SystemResetWarning,0834.4,4.99,000.00,018.9,018.2,000.0,027.3,020.0,12.7,0000.0,0005.92,0002.77,0002.01
2023-11-24 14:43:00,SystemResetWarning,0834.3,5.00,000.00,018.9,018.2,000.0,027.3,020.0,12.7,0000.0,0005.94,0002.80,0002.02
2023-11-24 14:44:00,SystemResetWarning,0834.5,5.00,000.00,018.9,018.1,000.0,027.3,020.1,12.7,0000.0,0004.89,0002.82,0002.04
2023-11-24 14:45:00,SystemResetWarning,0834.4,5.00,000.00,018.9,018.1,000.0,027.3,020.0,12.7,0000.0,0004.67,0002.82,0002.05
2023-11-24 14:46:00,SystemResetWarning,0834.3,5.01,000.00,018.9,018.0,000.0,027.3,020.0,12.7,0000.0,0004.78,0002.78,0002.05
2023-11-24 14:47:00,SystemResetWarning,0834.5,5.00,000.00,018.9,018.0,000.0,027.3,020.0,12.8,0000.0,0004.77,0002.71,0002.04
2023-11-24 14:48:00,SystemResetWarning,0834.5,4.99,000.00,018.9,018.0,000.0,027.2,020.0,12.8,0000.0,0004.71,0002.68,0002.05
2023-11-24 14:49:00,SystemResetWarning,0834.8,5.01,000.00,018.9,018.1,000.0,027.2,020.2,12.8,0000.0,0004.94,0002.68,0002.06
2023-11-24 14:50:00,SystemResetWarning,0834.3,5.01,000.00,019.0,018.6,000.0,027.2,020.7,12.7,0000.0,0005.14,0002.66,0002.06
2023-11-24 14:51:00,SystemResetWarning,0834.6,4.99,000.00,019.1,019.3,000.0,027.2,021.0,12.6,0000.0,0005.11,0002.66,0002.06
2023-11-24 14:52:00,SystemResetWarning,0834.4,4.99,000.00,019.2,019.2,000.0,027.3,020.8,12.6,0000.0,0004.94,0002.63,0002.06
2023-11-24 14:53:00,SystemResetWarning,0834.3,5.00,000.00,019.2,019.1,000.0,027.3,020.5,12.6,0000.0,0004.76,0002.60,0002.07
2023-11-24 14:54:00,SystemResetWarning,0834.2,5.00,000.00,019.1,018.9,000.0,027.3,020.3,12.6,0000.0,0004.61,0002.57,0002.06
2023-11-24 14:55:00,SystemResetWarning,0834.2,5.00,000.00,019.1,018.8,000.0,027.3,020.3,12.7,0000.0,0004.62,0002.57,0002.06
2023-11-24 14:56:00,SystemResetWarning,0834.2,5.00,000.00,019.1,018.7,000.0,027.3,020.3,12.7,0000.0,0004.60,0002.59,0002.07
2023-11-24 14:57:00,SystemResetWarning,0834.2,5.00,000.00,019.1,018.6,000.0,027.3,020.3,12.7,0000.0,0004.63,0002.57,0002.07
2023-11-24 14:58:00,SystemResetWarning,0834.2,5.00,000.00,019.1,018.5,000.0,027.3,020.3,12.7,0000.0,0004.35,0002.55,0002.07
2023-11-24 14:59:00,SystemResetWarning,0834.2,5.00,000.00,019.1,018.4,000.0,027.3,020.2,12.8,0000.0,0004.48,0002.56,0002.06
